Content
SEND FEEDBACK

Daily
Averages
Monthly
Summary
United States of America

WILMINGTON, NORTH CAROLINA


Home > North America > United States > North Carolina
Elevation: 72 feet     Latitude: 34 16N     Longitude: 077 54W

WEATHER
 
SELECT A DAY
Number of Records: 208,565;   Date Range: 1/1/95 - 7/7/14
 
SHARE

PRINT THIS DATA

[ ← Previous Day ]
WEATHER ALMANAC - APRIL 8, 2013
[ Next Day → ]
[ °C ]   °F
Weather ElementAverageHighLow
Temperature63.7 °F78.1 °F (2:53 pm)50 °F (4:09 am)
Dewpoint53.3 °F57.9 °F (8:53 am)48 °F (5:53 am)
Humidity72 %94 % (4:09 am)43 % (2:53 pm)
Barometer30.16 in30.21 in (7:53 am)30.13 in (3:53 pm)
Wind Speed6 mph17.3 mph (2:53 pm)
Wind Gust24.2 mph (4:53 pm)
Weather ElementAverage
Visibility9.1 mi
Wind DirectionESE (124.8 °)

Weather ElementTotal
Precipitation---
Heating Degree Days1 (Base 65)
Growing Degree Days14.1 (Base 50)
Averaged from 25 records on April 8, 2013
WEATHER CONDITIONS BREAKOUT
WIND DIRECTION BREAKOUT
WEATHER BY HOUR - APRIL 8, 2013
[ °C ]   °F
Local TimeTemperatureDewpointHumidityBarometerVisibilityWind DirectionWind SpeedGust SpeedPrecipitationEventsConditions
1:53 AM53.1 °F51.1 °F93 %30.16 in10.0 miSSE (160°)3.5 mphClear
2:53 AM52.0 °F48.9 °F89 %30.14 in10.0 miCalmClear
3:53 AM51.1 °F48.9 °F92 %30.14 in4.0 miCalmClear
4:02 AM51.8 °F48.2 °F88 %30.14 in2.5 miCalmClear
4:09 AM50.0 °F48.2 °F94 %30.14 in7.0 miCalmClear
4:53 AM51.1 °F48.9 °F92 %30.15 in4.0 miCalmPartly Cloudy
5:53 AM50.0 °F48.0 °F93 %30.16 in9.0 miCalmClear
6:53 AM50.0 °F48.0 °F93 %30.18 in10.0 miCalmPartly Cloudy
7:53 AM54.0 °F52.0 °F93 %30.21 in10.0 miCalmClear
8:53 AM63.0 °F57.9 °F84 %30.21 in10.0 miCalmClear
9:53 AM69.1 °F57.0 °F65 %30.21 in10.0 miSW (230°)8.1 mphClear
10:53 AM73.0 °F57.0 °F57 %30.21 in10.0 miSW (230°)10.4 mph16.1 mphScattered Clouds
11:53 AM75.9 °F55.0 °F48 %30.20 in10.0 miWSW (240°)9.2 mph21.9 mphScattered Clouds
12:53 PM77.0 °F55.0 °F47 %30.18 in10.0 miSouth (180°)9.2 mphPartly Cloudy
1:53 PM77.0 °F54.0 °F45 %30.16 in10.0 miSW (220°)8.1 mphPartly Cloudy
2:53 PM78.1 °F54.0 °F43 %30.14 in10.0 miSouth (180°)17.3 mphPartly Cloudy
3:53 PM77.0 °F54.0 °F45 %30.13 in10.0 miSouth (170°)16.1 mphClear
4:53 PM75.0 °F53.1 °F46 %30.13 in10.0 miSSW (200°)16.1 mph24.2 mphClear
5:53 PM73.0 °F54.0 °F51 %30.13 in10.0 miSSW (200°)11.5 mph20.7 mphClear
6:53 PM71.1 °F57.0 °F61 %30.14 in10.0 miSouth (190°)11.5 mph19.6 mphClear
7:53 PM68.0 °F57.0 °F68 %30.15 in10.0 miSouth (190°)6.9 mphClear
8:53 PM64.9 °F57.0 °F75 %30.16 in10.0 miSouth (190°)5.8 mphClear
9:53 PM63.0 °F55.9 °F78 %30.17 in10.0 miSouth (180°)5.8 mphClear
10:53 PM62.1 °F55.9 °F80 %30.18 in10.0 miSouth (170°)4.6 mphClear
11:53 PM63.0 °F57.0 °F81 %30.18 in10.0 miSouth (190°)5.8 mphClear
Hourly data recorded from KILM, located miles away from Wilmington, North Carolina







STORIES FROM OUR PARTNERS